• Join FlightAware (Why Join?)
  • Login
  • US Flag 
09:41PM EST


 

Airport Tracker/Info


-or-


 

Live Flight TrackerFlight Track Log ✈ SWA1718 ✈ 15-Apr-2013 ✈ KDEN - KMDW

Flight Track Log - Related Links

Times and Time Zones

All times are in EDT time to prevent confusion due to time zone crossing. See the SWA1718 flight status page for this flight to view local times or setup timezone preferences in your user account.

Time Position Orientation Groundspeed Altitude Reporting Facility
EDT Latitude Longitude Course Direction KTS MPH feet Rate Location/Type
07:38PM 39.9167 -104.6500 90° East 199 229 7,700  Level Denver TRACON
07:39PM 39.9500 -104.5833 57° Northeast 243 280 10,100 1,200 Climbing Denver TRACON
07:40PM 39.9500 -104.4833 90° East 297 342 10,100 60 Level Denver TRACON
07:41PM 39.9500 -104.3667 90° East 302 348 10,300 1,800 Climbing Denver TRACON
07:42PM 39.9333 -104.2667 102° East 305 351 13,800 2,820 Climbing Denver TRACON
07:43PM 39.9000 -104.1500 110° East 347 399 16,000 2,040 Climbing Denver TRACON
07:44PM 39.8833 -103.7181 90° East  Level FlightAware Approximate
07:44PM 39.8997 -104.1150 91° East 366 421 16,400  Level Denver Center
07:45PM 39.8800 -103.9728 100° East 398 458 19,300 2,640 Climbing Denver Center
07:46PM 39.8775 -103.8078 91° East 435 501 21,900 2,340 Climbing Denver Center
07:47PM 39.8931 -103.6533 82° East 437 503 24,200 2,100 Climbing Denver Center
07:48PM 39.9131 -103.4803 81° East 474 545 26,300 1,860 Climbing Denver Center
07:49PM 39.9325 -103.3025 82° East 492 566 28,100 1,320 Climbing Denver Center
07:50PM 39.9542 -103.1158 81° East 515 593 29,100 1,080 Climbing Denver Center
07:51PM 39.9758 -102.9156 82° East 551 634 30,400 1,560 Climbing Denver Center
07:52PM 40.0019 -102.6761 82° East 565 650 32,400 2,160 Climbing Denver Center
07:53PM 40.0228 -102.4792 82° East 560 644 34,900 1,260 Climbing Denver Center
07:54PM 40.0411 -102.2967 82° East 534 615 35,000 840 Climbing Denver Center
07:55PM 40.0628 -102.0856 82° East 524 603 36,800 840 Climbing Denver Center
07:56PM 40.0833 -101.8769 83° East 519 597 37,000 60 Climbing Denver Center
07:57PM 40.1028 -101.6750 83° East 508 585 37,000  Level Denver Center
07:58PM 40.1192 -101.5006 83° East 508 585 37,000  Level Denver Center
07:59PM 40.1389 -101.2969 83° East 508 585 37,000 -300 Level Denver Center
08:00PM 40.1553 -101.1239 83° East 505 581 36,400 -780 Descending Denver Center
08:01PM 40.1753 -100.9183 83° East 512 589 35,400 -720 Descending Denver Center
08:02PM 40.1906 -100.7419 83° East 514 592 35,000 -240 Descending Denver Center
08:03PM 40.2050 -100.5383 85° East 508 585 35,000  Level Denver Center
08:04PM 40.2075 -100.3639 89° East 505 581 35,000  Level Denver Center
08:05PM 40.2106 -100.1578 89° East 509 586 35,000  Level Denver Center
08:07PM 40.2128 -99.9778 89° East 519 597 35,000  Level Denver Center
08:08PM 40.2158 -99.7939 89° East 519 597 35,000  Level Denver Center
08:09PM 40.2178 -99.5669 89° East 521 600 35,000  Level Denver Center
08:10PM 40.2200 -99.3786 89° East 520 598 35,000  Level Denver Center
08:11PM 40.2217 -99.1503 89° East 525 604 35,000  Level Denver Center
08:12PM 40.2217 -98.9608 90° East 524 603 35,000  Level Denver Center
08:13PM 40.2225 -98.7714 90° East 524 603 35,000  Level Denver Center
08:13PM 40.2222 -98.6978 90° East 522 601 35,000  Level Minneapolis Center
08:14PM 40.2225 -98.5092 90° East 520 598 35,000  Level Minneapolis Center
08:15PM 40.2222 -98.3225 90° East 518 596 35,000  Level Minneapolis Center
08:16PM 40.2219 -98.1350 90° East 517 595 35,000  Level Minneapolis Center
08:17PM 40.2219 -97.9467 90° East 518 596 35,000  Level Minneapolis Center
08:18PM 40.2203 -97.7206 90° East 520 598 35,000  Level Minneapolis Center
08:19PM 40.2183 -97.5314 91° East 520 598 35,000  Level Minneapolis Center
08:20PM 40.2161 -97.3433 91° East 519 597 35,000  Level Minneapolis Center
08:21PM 40.2147 -97.1508 90° East 516 594 35,000  Level Minneapolis Center
08:23PM 40.2119 -96.9658 91° East 513 590 35,000  Level Minneapolis Center
08:24PM 40.2097 -96.7803 91° East 511 588 35,000  Level Minneapolis Center
08:25PM 40.2072 -96.5964 91° East 509 586 35,000  Level Minneapolis Center
08:26PM 40.2036 -96.4125 91° East 508 585 35,000  Level Minneapolis Center
08:27PM 40.2047 -96.1900 90° East 510 587 35,000  Level Minneapolis Center
08:28PM 40.2442 -95.9733 77° East 512 589 35,000  Level Minneapolis Center
08:29PM 40.2775 -95.7850 77° East 527 606 35,000  Level Minneapolis Center
08:30PM 40.3119 -95.6017 76° East 525 604 35,000  Level Minneapolis Center
08:31PM 40.3450 -95.4172 77° East 523 602 35,000  Level Minneapolis Center
08:32PM 40.3792 -95.2339 76° East 521 600 35,000  Level Minneapolis Center
08:33PM 40.4114 -95.0508 77° East 520 598 35,000  Level Minneapolis Center
08:34PM 40.4503 -94.8286 77° East 522 601 35,000  Level Minneapolis Center
08:35PM 40.4828 -94.6433 77° East 522 601 35,000  Level Minneapolis Center
08:36PM 40.5125 -94.4686 77° East 521 600 35,000  Level Minneapolis Center
08:37PM 40.5447 -94.2839 77° East 522 601 35,000  Level Minneapolis Center
08:38PM 40.5731 -94.1011 78° East 518 596 35,000  Level Minneapolis Center
08:39PM 40.6067 -93.8778 79° East 520 598 35,000  Level Minneapolis Center
08:40PM 40.6342 -93.6919 79° East 520 598 35,000  Level Minneapolis Center
08:41PM 40.6603 -93.5072 79° East 518 596 35,000  Level Minneapolis Center
08:42PM 40.6872 -93.3228 79° East 518 596 35,000  Level Minneapolis Center
08:43PM 40.7139 -93.1347 79° East 520 598 35,000  Level Minneapolis Center
08:44PM 40.7406 -92.9489 79° East 519 597 35,000  Level Minneapolis Center
08:45PM 40.7567 -92.8353 79° East 517 595 35,000  Level Chicago Center
08:46PM 40.7822 -92.6486 80° East 518 596 35,000 -360 Level Chicago Center
08:47PM 40.8078 -92.4597 80° East 520 598 34,300 -780 Descending Chicago Center
08:48PM 40.8328 -92.2750 80° East 516 594 33,400 -960 Descending Chicago Center
08:49PM 40.8564 -92.0906 80° East 512 589 32,400 -1,020 Descending Chicago Center
08:50PM 40.8864 -91.8708 80° East 510 587 31,300 -1,020 Descending Chicago Center
08:51PM 40.9097 -91.6878 80° East 507 583 30,300 -960 Descending Chicago Center
08:52PM 40.9333 -91.5053 80° East 507 583 29,400 -660 Descending Chicago Center
08:53PM 40.9561 -91.3217 81° East 510 587 29,000 -240 Descending Chicago Center
08:54PM 40.9797 -91.1319 81° East 508 585 29,000 -720 Level Chicago Center
08:55PM 41.0028 -90.9461 81° East 510 587 27,600 -1,980 Descending Chicago Center
08:56PM 41.0250 -90.7633 81° East 504 580 25,000 -1,800 Descending Chicago Center
08:57PM 41.0456 -90.5872 81° East 489 563 23,900 -1,020 Descending Chicago Center
08:58PM 41.0689 -90.3950 81° East 441 507 23,000 -480 Descending Chicago Center
08:59PM 41.0864 -90.2394 81° East 427 491 23,000 -840 Level Chicago Center
09:00PM 41.1044 -90.0858 81° East 420 483 21,400 -1,800 Descending Chicago Center
09:01PM 41.1222 -89.9336 81° East 415 478 19,400 -1,800 Descending Chicago Center
09:02PM 41.1392 -89.7833 81° East 409 471 17,700 -1,320 Descending Chicago Center
09:03PM 41.1758 -89.6439 71° East 400 460 16,700 -1,020 Descending Chicago Center
09:04PM 41.2142 -89.5072 70° East 395 455 15,700 -1,020 Descending Chicago Center
09:05PM 41.2531 -89.3736 69° East 390 449 14,700 -1,080 Descending Chicago Center
09:06PM 41.2983 -89.2117 70° East 388 447 13,500 -1,380 Descending Chicago Center
09:08PM 41.3339 -89.0817 70° East 373 429 11,900 -1,500 Descending Chicago Center
09:09PM 41.3683 -88.9564 70° East 366 421 10,400 -1,200 Descending Chicago Center
09:10PM 41.4033 -88.8364 69° East 354 407 9,500 -1,080 Descending Chicago Center
09:11PM 41.4339 -88.7228 70° East 333 383 8,200 -1,260 Descending Chicago Center
09:12PM 41.4653 -88.6111 69° East 326 375 7,000 -1,080 Descending Chicago Center
09:13PM 41.5000 -88.4844 70° East 315 362 6,000 -540 Descending Chicago Center
09:14PM 41.5219 -88.3869 73° East 294 338 6,000 -120 Level Chicago Center
09:15PM 41.5433 -88.2894 74° East 281 323 5,800 -420 Descending Chicago Center
09:16PM 41.5517 -88.1886 84° East 275 316 5,200 -420 Descending Chicago Center
09:17PM 41.5597 -88.0886 84° East 272 313 5,000 -120 Descending Chicago Center
09:18PM 41.5675 -87.9886 84° East 270 311 5,000  Level Chicago Center
09:19PM 41.5731 -87.8911 86° East 267 307 5,000  Level Chicago Center
09:20PM 41.5806 -87.8047 83° East 250 288 5,000  Level Chicago Center
09:21PM 41.5881 -87.7164 83° East 221 254 5,000 -300 Level Chicago Center
09:22PM 41.5742 -87.6519 106° East 197 227 4,500 -660 Descending Chicago Center
09:23PM 41.5992 -87.5992 58° Northeast 188 216 3,700 -900 Descending Chicago Center
09:24PM 41.6419 -87.5931 North 177 204 2,700 -600 Descending Chicago Center
09:25PM 41.6842 -87.6194 335° Northwest 173 199 2,500 -180 Descending Chicago Center
09:26PM 41.7167 -87.6500 325° Northwest 166 191 2,500 -420 Level Chicago TRACON
09:27PM 41.7333 -87.6833 304° West 127 146 1,900 -660 Descending Chicago TRACON
09:28PM 41.7667 -87.7167 323° Northwest 120 138 1,200 -720 Descending Chicago TRACON
09:30PM 41.7833 -87.7500 51° Northeast  Level FlightAware Approximate